Weather in Prymorsk

Ukraine / Zaporizhia Region     46°43′33″N   36°21′24″E
temp.,
°C
wind,
m/s
gust,
m/s
humid.,
%
clouds,
%
prec.,
mm/h
press.,
hPa
HPBL,
m
5 march, fri
fri523:00+4sw8158033 0.0 1015504
02:00+4sw8148117 0.0 1015519
05:00+4sw8148732 0.0 1014465
08:00+5sw7118564 0.0 1014500
11:00+7sw697687 0.0 1014498
14:00+8ssw567081 0.0 1013449
17:00+7s468059 0.0 1012159
20:00+7ssw5108479 0.0 1013194
6 march, sat
sat623:00+6sw61092100 0.0 1012205
02:00+5sw6119394 0.0 1012289
05:00+5wsw51093100 0.0 1011292
08:00+6wnw61085100 0.0 1013464
11:00+5nnw91170100 0.0 1016888
14:00+4nnw81160100 0.0 10181245
17:00+3nnw81051100 0.0 10211385
20:000nnw6115567 0.0 1024806
7 march, sun
sun723:00−1nw59600 0.0 1026596
02:00−1wnw58610 0.0 1027433
05:00−2wnw59600 0.0 1027340
08:000w58510 0.0 1027592
11:00+3wsw710430 0.0 10261765
14:00+5wsw8114724 0.0 10241733
17:00+3wsw7105026 0.0 1022661
20:00+1w6124830 0.0 1021550
8 march, mon
mon823:00+1wsw814640 0.0 1020614
02:00+2wsw915690 0.0 1019730
05:00+2wsw8157549 0.0 1018612
08:00+4wsw9147271 0.0 1018912
11:00+6wsw10126288 0.0 10171337
14:00+7sw10126274 0.1 10161254
17:00+6sw8126588 0.1 1015566
20:00+5wsw7126794 0.1 1016414
9 march, tue
tue923:00+3wsw61176100 0.0 1016372
02:00+2w488169 0.0 1015199
05:00+1wsw35856 0.0 1015137
08:00+3w57743 0.0 1015409
11:00+6wnw565932 0.0 1016986
14:00+5nw686365 0.3 10161031
17:00+4nnw455097 0.0 1017798
20:00+2n345968 0.0 1019158